sat.trackr.live / text

‹ back to catalog

STARLINK-36842

NORAD 67884 · 2026-035F

PAYLOAD ACTIVE UNKNOWN

§ Identity

Operator
Country
US
Launch date
2026-02-21
Launch site
AFWTR
Launch vehicle
Mass (kg)
RCS (m²)

Purposes: comms

External: N2YO · Heavens-Above · Gunter

§ Orbital elements

Epoch: 2026-05-24T18:25:32.970144Z

Period
93.91 min
Inclination
97.2846°
Eccentricity
0.0001707
Mean motion
15.33448626 rev/d
Perigee alt
464.4 km
Apogee alt
466.7 km
Semi-major
6,843.7 km
B*
5.6001e-4
RAAN
78.2430°
Arg perigee
92.7354°
Mean anomaly
267.4085°
Rev number
1,564

§ Raw data

STARLINK-368421 67884U 26035F   26144.76774271  .00018050  00000+0  56001-3 0  99952 67884  97.2846  78.2430 0001707  92.7354 267.4085 15.33448626 15640

JSON: /api/v1/satellites/67884 · /tle

For live sub-satellite position, see the globe view (requires WebGL).

§ Visibility from observer

Set your observer location to see the next 7 days of passes ≥ 10°. The values pass through the URL so the page stays shareable.

No JS? Fill the form by hand. The geolocation button needs JavaScript.